Location: Babice
(50.3480°N, 22.9363°E)
Time: 01:42:43
(UTC+00:00)

Cosmos 468 Rocket - Pass Details

Date: 14 July 2020
Orbit: 743 x 780 km, 74.0° (Epoch: 06 August)

Event Time Altitude Azimuth Distance (km) Brightness Sun altitude
Rises 00:51:42 0° 337° (NNW) 3,265 7.8 -11.9°
Reaches altitude 10° 00:54:07 10° 340° (NNW) 2,338 7.0 -11.7°
Maximum altitude 00:59:25 69° 64° (ENE) 837 4.4 -11.2°
Drops below altitude 10° 01:04:43 10° 147° (SSE) 2,331 6.3 -10.7°
Sets 01:07:06 0° 150° (SSE) 3,254 7.0 -10.5°
